User: anonymous   Login
Location: Darlington Observatory
(36.4817°N, 105.8156°W)
Time: 10:06:46
(UTC-06:00)
Language:

NOSS 3-3 (A) - Orbit

View from above orbital plane
View from above orbital plane
View from above satellite
View from above satellite

Ground track
Ground track

The orbit data is extracted from the following two-line orbital elements,

1 28537U 05004A   15087.10542627 0.00000000  00000-0  00000-0 0    05
2 28537  63.4287  97.4326 0198000 358.9434   1.0566 13.40676738    05
Epoch (UTC): 28 March 2015 02:31:48
Eccentricity: 0.0198000
inclination: 63.4287°
perigee height: 958 km
apogee height: 1255 km
right ascension of ascending node: 97.4326°
argument of perigee: 358.9434°
revolutions per day: 13.40676738
mean anomaly at epoch: 1.0566°
orbit number at epoch: 0

The dashed part of the orbit path shows where the satellite is in the earth's shadow,  

DLR